Flag for U.S.A. Weather past 2 weeks in Nashville, Tennessee, U.S.A.

Now
65 °F

Passing clouds.


Feels Like: 65 °F
Forecast: 63 / 85 °F
Wind: No wind

Location: Nashville International Airport

Current Time: Jul 31, 2014 at 1:38:47 AM

Latest Report: Jul 31, 2014 at 12:53 AM


Visibility: 10 mi

Pressure: 30.08 "Hg

Humidity: 81%

Dew point: 59 °F

Location of NashvilleLocation

Historic Weather in Nashville — Graph

°F

Nashville temperature yesterday

Maximum temperature yesterday: 82 °F (at 1:53 PM)
Minimum temperature yesterday: 58 °F (at 4:53 AM)
Average temperature yesterday: 71 °F

Past Weeks' High & Low Weather Summary

 TemperatureHumidityPressure
High94 °F (Jul 27, 3:53 PM)100% (Jul 19, 5:59 AM)30.13 "Hg (Jul 19, 5:59 AM)
Low57 °F (Jul 16, 5:53 AM)34% (Jul 17, 3:53 PM)29.82 "Hg (Jul 27, 4:53 PM)
Average75 °F69%30.01 "Hg
* Reported Jul 15 11:53 PM — Jul 30 11:53 PM, Nashville, Weather by CustomWeather, © 2014

Note: Actual official high and low records may vary slightly from our data, if they occured in-between our weather recording intervals... More about our weather records

Advertising

Nashville weather history for previous 24 hours

 ConditionsComfort  
Time TempWeatherWind HumidityBarometerVisibility
11:53 PM
Jul 30
66 °FPassing clouds.No wind78%30.08 "Hg10 mi
10:53 PM68 °FPassing clouds.No wind70%30.07 "Hg10 mi
9:53 PM69 °FHigh level clouds.No wind66%30.07 "Hg10 mi
8:53 PM72 °FPartly cloudy.No wind57%30.06 "Hg10 mi
7:53 PM76 °FPartly cloudy.5 mph48%30.06 "Hg10 mi
6:53 PM78 °FMore clouds than sun.6 mph43%30.06 "Hg10 mi
5:53 PM79 °FMostly cloudy.7 mph44%30.06 "Hg10 mi
4:53 PM80 °FCloudy.No wind41%30.06 "Hg10 mi
3:53 PM82 °FMore clouds than sun.8 mph40%30.07 "Hg10 mi
2:53 PM82 °FBroken clouds.6 mph38%30.08 "Hg10 mi
1:53 PM82 °FPartly sunny.6 mph43%30.09 "Hg10 mi
12:53 PM80 °FMostly cloudy.6 mph47%30.09 "Hg10 mi
11:53 AM79 °FCloudy.No wind47%30.11 "Hg10 mi
10:53 AM77 °FMostly cloudy.5 mph52%30.12 "Hg10 mi
9:53 AM74 °FPartly sunny.No wind57%30.11 "Hg10 mi
8:53 AM69 °FPartly sunny.No wind73%30.11 "Hg10 mi
7:53 AM63 °FBroken clouds.No wind84%30.11 "Hg9 mi
6:53 AM59 °FBroken clouds.3 mph90%30.10 "Hg8 mi
5:53 AM58 °FScattered clouds.No wind90%30.10 "Hg10 mi
4:53 AM58 °FClear.No wind93%30.09 "Hg10 mi
3:53 AM59 °FClear.3 mph90%30.08 "Hg10 mi
2:53 AM61 °FClear.No wind87%30.09 "Hg10 mi
1:53 AM61 °FClear.No wind83%30.09 "Hg10 mi
Weather by CustomWeather, © 2014

See weather overviewHow to use our weather pages